Flag for Russia Weather past 2 weeks in Surgut, Russia

Now
23 °F

Passing clouds.


Feels Like: 14 °F
Forecast: 18 / 32 °F
Wind: 8 mph from South

Location: Surgut Airport

Current Time: Dec 23, 2014 at 4:37:48 AM

Latest Report: Dec 23, 2014 at 4:00 AM


Visibility: 4 mi

Pressure: 29.86 "Hg

Humidity: 93%

Dew point: 21 °F

Location of SurgutLocation

Historic Weather in Surgut — Graph

°F

Surgut temperature yesterday

Maximum temperature yesterday: 32 °F (at 10:00 AM)
Minimum temperature yesterday: 23 °F (at 7:30 PM)
Average temperature yesterday: 27 °F

Past Weeks' High & Low Weather Summary

 TemperatureHumidityPressure
High32 °F (Dec 22, 10:00 AM)100% (Dec 9, 1:00 PM)30.45 "Hg (Dec 9, 1:00 PM)
Low-8 °F (Dec 8, 3:00 AM)69% (Dec 15, 2:00 AM)29.47 "Hg (Dec 22, 6:00 AM)
Average18 °F88%30.06 "Hg
* Reported Dec 8 3:00 AM — Dec 23 3:30 AM, Surgut, Weather by CustomWeather, © 2014

Note: Actual official high and low records may vary slightly from our data, if they occured in-between our weather recording intervals... More about our weather records

Advertising

Surgut weather history for previous 24 hours

 ConditionsComfort  
Time TempWeatherWind HumidityBarometerVisibility
3:30 AM
Dec 23
21 °FPassing clouds.8 mph93%29.86 "Hg4 mi
3:00 AM21 °FPartly cloudy.8 mph93%29.89 "Hg4 mi
2:30 AM19 °FPartly cloudy.8 mph100%29.89 "Hg4 mi
2:00 AM21 °FPartly cloudy.8 mph93%29.89 "Hg4 mi
1:30 AM19 °FPartly cloudy.8 mph100%29.89 "Hg4 mi
1:00 AM21 °FPassing clouds.8 mph93%29.89 "Hg4 mi
12:30 AM23 °FPassing clouds.8 mph93%29.89 "Hg4 mi
12:00 AM23 °FPassing clouds.8 mph93%29.89 "Hg4 mi
11:30 PM
Dec 22
23 °FPassing clouds.8 mph93%29.89 "Hg4 mi
11:00 PM23 °FPassing clouds.8 mph93%29.89 "Hg4 mi
10:30 PM23 °FPassing clouds.8 mph93%29.86 "Hg4 mi
10:00 PM23 °FPassing clouds.8 mph93%29.86 "Hg4 mi
9:30 PM23 °FPassing clouds.6 mph93%29.86 "Hg4 mi
9:00 PM23 °FPassing clouds.6 mph93%29.86 "Hg4 mi
8:30 PM23 °FPassing clouds.8 mph93%29.86 "Hg4 mi
8:00 PM23 °FPassing clouds.8 mph93%29.83 "Hg4 mi
7:30 PM23 °FPassing clouds.8 mph93%29.83 "Hg4 mi
7:00 PM25 °FPassing clouds.8 mph86%29.83 "Hg4 mi
6:30 PM25 °FPassing clouds.8 mph86%29.83 "Hg4 mi
6:00 PM25 °FPassing clouds.10 mph93%29.83 "Hg4 mi
5:30 PM25 °FClear.6 mph86%29.80 "Hg4 mi
5:00 PM27 °FPassing clouds.6 mph86%29.80 "Hg4 mi
4:30 PM28 °FPassing clouds.10 mph80%29.77 "Hg4 mi
4:00 PM28 °FPassing clouds.13 mph86%29.77 "Hg4 mi
3:30 PM28 °FScattered clouds.13 mph86%29.74 "Hg4 mi
3:00 PM30 °FScattered clouds.20 mph80%29.71 "Hg4 mi
2:30 PM30 °FScattered clouds.20 mph80%29.71 "Hg4 mi
2:00 PM32 °FScattered clouds.20 mph75%29.68 "Hg4 mi
1:30 PM32 °FScattered clouds.20 mph80%29.65 "Hg4 mi
1:00 PM32 °FScattered clouds.17 mph80%29.62 "Hg4 mi
12:30 PM32 °FScattered clouds.17 mph80%29.59 "Hg4 mi
12:00 PM32 °FScattered clouds.22 mph80%29.56 "Hg4 mi
11:30 AM32 °FScattered clouds.20 mph80%29.56 "Hg4 mi
11:00 AM32 °FBroken clouds.20 mph80%29.56 "Hg4 mi
10:30 AM32 °FBroken clouds.22 mph80%29.53 "Hg4 mi
10:00 AM32 °FPartly cloudy.15 mph80%29.53 "Hg4 mi
9:30 AM30 °FPassing clouds.17 mph86%29.50 "Hg4 mi
8:30 AM30 °FPassing clouds.15 mph86%29.50 "Hg4 mi
8:00 AM28 °FPassing clouds.17 mph93%29.50 "Hg4 mi
7:30 AM28 °FPassing clouds.15 mph93%29.47 "Hg4 mi
7:00 AM28 °FPassing clouds.17 mph86%29.47 "Hg4 mi
6:30 AM27 °FPassing clouds.13 mph93%29.47 "Hg4 mi
6:00 AM27 °FPassing clouds.15 mph93%29.47 "Hg4 mi
5:00 AM27 °FSnow flurries. Passing clouds.10 mph86%29.50 "Hg4 mi
4:30 AM25 °FSnow flurries. Passing clouds.13 mph93%29.50 "Hg2 mi
4:00 AM25 °FSnow flurries. Passing clouds.13 mph93%29.50 "Hg1 mi
Weather by CustomWeather, © 2014

See weather overviewHow to use our weather pages